Regional Weather Roundup
Issued by NWS

Home | Current Version | Previous Version | Text Only | Print | Product List | Glossary On
Versions: 1 2 3 4 5 6 7 8 9 10 11 12 13 14 15 16 17 18 19 20 21 22 23 24 25 26 27 28 29 30 31 32 33 34 35 36 37 38 39 40 41 42 43 44 45 46 47 48 49 50
000
ASUS43 KFSD 271510
RWRSD

WEATHER ROUNDUP FOR SOUTH DAKOTA
NATIONAL WEATHER SERVICE SIOUX FALLS SD
1000 AM CDT TUE JUN 27 2017

NOTE: "FAIR" INDICATES FEW OR NO CLOUDS BELOW 12,000 FEET WITH NO
SIGNIFICANT WEATHER AND/OR OBSTRUCTIONS TO VISIBILITY.


SDZ001>005-009-010-012>017-271600-
NORTHWEST AND NORTH CENTRAL SOUTH DAKOTA

CITY           SKY/WX    TMP DP  RH WIND       PRES   REMARKS
BUFFALO          N/A     74  52  46 S13       29.62F
FAITH            N/A     72  54  53 S33G44    29.69F
MOBRIDGE       MOSUNNY   71  49  45 S24G33    29.77F
$$

SDZ012>016-024>037-041>051-057-063-072>074-271600-
SOUTHWEST AND SOUTH CENTRAL SOUTH DAKOTA

CITY           SKY/WX    TMP DP  RH WIND       PRES   REMARKS
RAPID CTY ARPT SUNNY     72  56  57 S35G45    29.71F
PIERRE         MOSUNNY   71  53  52 S20G33    29.81F
CUSTER         CLOUDY    66  53  63 SW9       29.89F
ELLSWORTH AFB  SUNNY     73  57  59 S26G36    29.70
PHILIP         SUNNY     73  58  59 S20G33    29.77F
PINE RIDGE     MOSUNNY   70  59  68 S26G40    29.81F
SPEARFISH      LGT RAIN  77  55  47 CALM      29.73F
WINNER         FAIR      73  52  47 S22G39    29.88F
$$

SDZ004>011-016>023-039-040-271600-
NORTHEAST SOUTH DAKOTA

CITY           SKY/WX    TMP DP  RH WIND       PRES   REMARKS
ABERDEEN       SUNNY     67  47  48 S22G32    29.90F
WATERTOWN      MOSUNNY   63  47  55 S15       29.97F
BROOKINGS      MOSUNNY   67  47  48 S18G24    30.01F
SISSETON         N/A     69  45  41 S20G26    29.94F
$$

SDZ017-020-022-023-036>040-048>070-271600-
SOUTHEAST SOUTH DAKOTA

CITY           SKY/WX    TMP DP  RH WIND       PRES   REMARKS
SIOUX FALLS    PTSUNNY   67  51  56 S15G23    30.02F
HURON          SUNNY     66  48  52 S20       29.95F
CHAMBERLAIN    SUNNY     72  53  50 SE26      29.91F
MITCHELL       SUNNY     70  51  51 S21G32    29.97F
YANKTON        SUNNY     69  52  54 S18G28    30.01F
$$

ABBREVIATIONS USED IN REMARKS
   TC - TEMPERATURE IN CELSIUS
  WCI - WIND CHILL INDEX
   HX - HEAT INDEX
  VSB - VISIBILITY





USA.gov is the U.S. government's official web portal to all federal, state and local government web resources and services.